Home   Weather   Coquitlam   Past weeks

Flag for Canada Past Weather in Coquitlam, British Columbia, Canada — Yesterday and Last 2 Weeks

Now
60 °F

Cool.


Feels Like: 60 °F
Forecast: 49 / 62 °F
Wind: 2 mph from South

Location: P. Meadows Coastal Station

Current Time: Sep 24, 2016 at 2:03:09 PM

Latest Report: Sep 24, 2016 at 1:00 PM


Visibility: N/A

Pressure: 30.40 "Hg

Humidity: 74%

Dew Point: 52 °F

Location of CoquitlamLocation

Past Weather in Coquitlam — Graph

°F

Coquitlam Temperature Yesterday

Maximum temperature yesterday: 56 °F (at 3:00 AM)
Minimum temperature yesterday: 52 °F (at 1:00 PM)
Average temperature yesterday: 54 °F

High & Low Weather Summary for the Past Weeks

 TemperatureHumidityPressure
High77 °F (Sep 13, 4:00 PM)99% (Sep 19, 9:00 AM)30.41 "Hg (Sep 19, 9:00 AM)
Low44 °F (Sep 21, 7:00 AM)28% (Sep 12, 2:00 PM)29.81 "Hg (Sep 17, 12:00 PM)
Average59 °F76%30.08 "Hg
* Reported Sep 9 1:00 PM — Sep 24 1:00 PM, Coquitlam, Weather by CustomWeather, © 2016

Note: Actual official high and low records may vary slightly from our data, if they occured in-between our weather recording intervals... More about our weather records

Advertising

Coquitlam Weather History for the Previous 24 Hours

Scroll right to see more
 ConditionsComfort  
Time TempWeatherWind HumidityBarometerVisibility
1:00 PM
Sat, Sep 24
60 °FCool.2 mph74%30.40 "HgN/A
12:00 PM58 °FCool.2 mph78%30.40 "HgN/A
11:00 AM56 °FCool.2 mph86%30.41 "HgN/A
10:00 AM56 °FCool.1 mph88%30.39 "HgN/A
9:00 AM55 °FCool.1 mph89%30.36 "HgN/A
8:00 AM54 °FCool.1 mph94%30.34 "HgN/A
7:00 AM52 °FCool.2 mph94%30.32 "HgN/A
6:00 AM53 °FCool.5 mph94%30.30 "HgN/A
5:00 AM53 °FCool.1 mph85%30.28 "HgN/A
4:00 AM54 °FCool.2 mph92%30.26 "HgN/A
3:00 AM54 °FCool.No wind93%30.24 "HgN/A
2:00 AM54 °FCool.2 mph91%30.23 "HgN/A
1:00 AM54 °FCool.1 mph93%30.21 "HgN/A
12:00 AM54 °FCool.1 mph95%30.18 "HgN/A
11:00 PM
Fri, Sep 23
54 °FCool.1 mph95%30.16 "HgN/A
10:00 PM53 °FCool.No wind95%30.15 "HgN/A
8:00 PM53 °FCool.3 mph94%30.08 "HgN/A
7:00 PM53 °FCool.5 mph94%30.06 "HgN/A
6:00 PM53 °FCool.7 mph88%30.04 "HgN/A
5:00 PM53 °FCool.7 mph87%30.03 "HgN/A
4:00 PM53 °FCool.7 mph93%30.01 "HgN/A
3:00 PM53 °FCool.7 mph90%30.00 "HgN/A
2:00 PM52 °FCool.6 mph90%29.99 "HgN/A
Weather by CustomWeather, © 2016

See weather overviewHow to use our weather pages